Погода в Песчаном

Россия / Астраханская область     45°48′26″N   47°19′40″E
темп.,
°C
ветер,
м/с
пор.,
м/с
влажн.,
%
обл.,
%
осадки,
мм/ч
давл.,
гПа
погр.,
м
8 мая, сб
сб801:00+14ю58605 0.0 1018180
04:00+13ююз46670 0.0 1018110
07:00+14юз35645 0.0 1018152
10:00+20ююз34430 0.0 1018721
13:00+24ююв54335 0.0 10171864
16:00+23ююв76315 0.0 10161377
19:00+19ююв774098 0.0 1016583
22:00+16ююв5958100 0.0 1016378
9 мая, вс
вс901:00+15ююв4867100 0.0 1015311
04:00+14вюв511745 0.0 1012265
07:00+17юв71261100 0.0 1012606
10:00+21юв11145369 0.0 1011954
13:00+21юв111355100 0.0 10101038
16:00+21ююв9115498 0.0 10091061
19:00+19юв6762100 0.0 1009736
22:00+17ю2374100 0.0 1009147
10 мая, пн
пн1001:00+11зсз131680100 0.9 1011650
04:00+9зсз121784100 3.8 1013855
07:00+10зсз10137499 0.4 10161151
10:00+11зсз111363100 0.4 10161228
13:00+14зсз91048100 0.0 10171725
16:00+17зсз7103476 0.0 10172429
19:00+15сз77420 0.0 10181174
22:00+11ссз34545 0.0 102065
11 мая, вт
вт1101:00+10юв11645 0.0 102010
04:00+9сз22691 0.0 102011
07:00+10св22670 0.0 1022159
10:00+14св2248100 0.0 1022968
13:00+18в453475 0.0 10201838
16:00+20вюв553115 0.0 10192414
19:00+17юв54465 0.0 1020750
22:00+14ю345599 0.0 102098
12 мая, ср
ср1201:00+13з22605 0.0 102011
04:00+11с006530 0.0 102010
07:00+14св225733 0.0 1020112
10:00+18св33395 0.0 1019946
13:00+22в34320 0.0 10181726
16:00+21юв65380 0.0 10171255
19:00+19юв54480 0.0 1017801
22:00+16ююв34660 0.0 1017139